Wind_Speed
28 28 29 29 29 29 29 29 28 27 28 28 28 29 29 29 30 31 31 32 33 34 36 37 38 39 41 41 41 40 40 40 39 39 39 39 39 39
26 27 27 27 27 28 28 27 27 27 25 26 26 27 28 28 29 30 30 31 32 33 35 36 37 38 39 41 41 41 40 39 39 39 40 40 40 41
26 26 26 27 26 27 27 26 26 25 25 25 26 26 26 27 27 28 29 31 32 32 33 34 35 36 37 37 38 40 41 40 39 39 40 40 40 39
26 26 26 26 25 25 25 24 24 24 24 23 24 25 25 25 25 26 28 29 30 30 31 32 33 34 35 35 36 37 38 39 39 39 39 38 38 39
25 26 25 24 24 23 23 23 23 24 24 24 23 24 24 24 25 26 26 27 27 28 28 28 29 31 33 34 35 35 36 37 37 37 37 38 38 38
25 24 23 23 23 22 23 23 23 23 24 24 24 24 24 24 24 25 24 24 25 26 26 26 26 27 30 32 34 35 35 35 36 35 36 37 37 38
23 22 21 20 20 21 22 22 23 23 24 25 25 25 24 24 23 24 24 23 23 24 25 26 25 26 27 29 31 33 33 33 34 35 35 35 36 37
21 20 20 20 20 21 22 21 22 22 22 23 23 23 23 24 24 24 24 23 23 24 24 25 25 25 26 27 28 30 31 32 33 33 34 35 36 37
20 20 20 20 20 20 20 20 21 21 23 23 22 22 22 22 23 23 23 23 23 24 24 24 26 26 25 26 28 29 30 30 32 33 33 34 35 37
21 20 20 20 20 20 19 19 19 20 21 21 21 21 22 22 22 22 23 23 23 24 23 23 24 25 25 25 26 28 30 31 32 34 34 35 35 36
20 20 20 20 20 19 19 19 20 20 20 21 21 21 21 21 21 21 21 21 21 22 24 24 24 25 25 25 27 28 29 31 32 33 34 35 35 35
20 20 20 19 19 19 20 20 20 21 21 21 21 21 21 21 21 22 21 21 21 21 22 23 23 24 24 24 26 27 29 30 31 32 33 34 34 35
20 20 20 19 19 20 20 20 20 21 21 21 20 21 21 21 21 22 21 21 20 20 21 22 23 23 23 23 24 26 28 29 30 30 32 33 33 33
20 20 20 20 20 20 20 21 21 21 21 21 20 20 20 20 21 21 21 21 21 21 21 22 23 23 23 24 24 25 26 28 29 29 31 32 33 33
21 21 21 21 21 21 21 21 21 21 21 21 20 20 21 20 20 21 21 21 21 21 20 21 22 23 24 25 25 26 27 27 28 29 30 31 32 32
22 22 22 22 22 22 22 22 21 21 20 21 20 21 21 21 21 21 21 21 21 22 22 23 23 24 24 24 25 26 27 28 28 28 29 29 30 30
23 23 23 23 23 23 23 23 22 22 22 22 21 20 20 21 21 21 21 21 21 21 22 22 23 24 24 24 25 26 26 27 27 27 28 28 28 29
25 25 24 24 23 23 23 23 24 23 23 22 21 21 21 21 21 21 21 21 21 21 22 23 23 24 24 24 25 25 26 26 26 27 28 28 28 29
26 25 25 24 24 24 24 25 25 24 24 23 22 22 22 21 21 21 21 21 21 21 22 22 23 24 24 24 25 25 25 26 26 27 27 27 28 29
26 25 24 25 26 25 24 25 25 25 24 23 22 22 22 21 21 21 21 21 21 21 22 23 23 24 24 24 24 24 25 26 26 27 27 26 27 27
26 26 25 26 27 27 26 25 25 25 24 23 22 21 21 21 21 21 22 22 22 21 21 22 23 23 24 24 24 23 23 24 25 26 27 27 27 27
27 27 27 27 27 27 27 26 25 25 24 22 22 21 21 21 21 21 21 22 21 22 22 21 21 22 22 22 23 23 22 23 24 25 26 26 27 27
29 28 28 27 26 26 26 26 26 25 24 23 23 22 22 22 22 21 21 22 21 22 21 21 21 21 21 21 22 22 22 22 22 23 25 25 25 26
Wind_Direction
294 292 292 289 287 287 286 283 279 277 276 275 274 273 273 272 269 268 266 265 264 262 260 258 255 253 250 249 248 249 248 246 245 244 243 242 243 246
296 295 292 290 288 286 285 284 281 279 279 276 274 273 272 270 270 269 268 266 264 263 261 258 256 255 252 249 247 247 247 247 246 244 243 245 246 246
298 296 294 292 290 287 285 283 282 281 280 277 274 273 272 271 271 271 269 267 264 262 261 259 258 256 253 250 248 247 246 247 247 247 245 245 246 246
299 299 296 295 293 290 286 284 282 281 279 278 276 274 274 273 272 272 270 267 265 263 262 259 257 255 253 250 248 246 246 246 247 247 246 245 245 245
300 300 299 296 293 291 287 284 282 281 280 281 278 277 277 277 277 275 272 271 269 267 265 261 259 256 252 248 245 244 245 246 247 246 246 245 245 245
303 303 303 299 295 292 290 288 285 285 283 282 280 280 281 282 282 280 277 274 272 269 267 263 261 258 253 248 245 244 245 247 246 246 246 246 245 244
307 306 304 302 299 295 294 292 288 288 286 285 282 282 282 283 283 281 280 276 273 271 269 265 262 258 253 249 246 244 245 245 245 245 245 246 246 245
314 310 305 301 301 300 298 294 291 289 288 286 285 284 282 281 282 281 280 275 271 270 268 265 263 258 252 249 248 246 246 246 245 245 245 246 246 246
317 315 311 307 306 305 301 299 296 293 291 289 287 288 285 283 282 281 280 277 272 270 268 265 263 259 255 252 248 247 247 247 247 247 247 247 247 247
318 315 314 311 308 306 304 302 300 298 295 292 290 289 287 286 284 281 279 277 272 271 269 266 262 258 255 253 250 249 249 249 248 247 247 247 248 248
321 319 317 316 314 311 307 305 302 300 298 294 291 291 288 286 284 281 280 277 275 273 269 266 262 259 256 254 253 250 249 249 248 247 248 247 247 247
326 324 322 321 318 314 310 309 306 301 299 296 293 292 290 287 285 283 281 278 275 273 271 268 263 259 257 256 255 252 251 250 249 248 248 247 247 247
330 328 326 325 322 317 312 311 310 306 303 299 296 292 290 286 284 282 281 280 278 275 272 269 266 262 260 258 258 256 254 252 251 250 249 249 249 248
334 331 329 327 326 323 319 314 312 310 307 303 299 298 295 290 286 284 281 280 280 278 274 271 266 263 262 260 259 259 257 254 254 253 252 251 250 249
332 331 330 329 326 325 321 317 315 314 310 306 302 299 298 293 290 287 283 281 280 278 276 273 270 265 264 262 261 259 257 255 255 254 254 253 252 251
331 330 329 329 327 324 322 318 317 316 314 310 305 301 299 297 293 290 286 282 280 278 277 275 272 270 266 264 263 261 258 256 255 254 254 253 252 252
335 332 330 328 325 324 323 321 319 317 314 310 305 303 302 300 297 292 288 284 281 278 277 275 272 269 268 267 265 262 260 257 256 255 254 254 253 252
334 333 331 329 327 326 325 323 320 317 313 309 307 305 303 299 295 292 288 285 283 281 279 275 271 269 268 269 267 263 260 258 257 257 255 255 254 254
336 335 333 331 329 327 326 325 323 319 315 311 309 307 304 301 295 293 292 288 284 282 279 277 274 271 269 270 268 265 261 258 257 256 256 256 256 255
336 335 334 333 332 329 327 327 326 324 320 315 313 311 308 303 299 296 294 292 288 283 279 277 275 273 272 271 270 268 263 258 256 256 255 255 255 255
339 337 334 333 332 331 330 328 327 327 323 319 315 314 311 307 302 298 297 295 291 288 283 279 277 277 275 273 271 269 266 262 258 256 255 254 254 254
339 338 336 334 332 331 330 329 327 327 326 321 317 315 312 309 305 301 298 295 292 291 289 285 281 279 275 273 272 269 266 262 259 258 256 254 252 252
338 336 336 336 335 334 332 330 329 328 326 323 320 316 313 310 308 306 301 297 296 296 293 289 284 280 276 274 272 270 267 263 259 258 257 254 252 251
Height
5721 5718 5717 5715 5713 5711 5710 5709 5709 5709 5709 5708 5707 5706 5706 5706 5706 5707 5708 5709 5710 5711 5712 5713 5715 5718 5721 5724 5727 5730 5733 5737 5740 5744 5748 5752 5755 5759
5713 5711 5709 5707 5705 5703 5702 5701 5700 5700 5700 5700 5699 5698 5697 5697 5697 5697 5698 5699 5699 5700 5701 5702 5704 5706 5709 5712 5715 5719 5722 5726 5730 5733 5737 5741 5745 5748
5706 5704 5701 5699 5697 5695 5694 5694 5693 5692 5692 5692 5690 5689 5688 5688 5688 5688 5688 5689 5689 5690 5691 5692 5694 5695 5697 5700 5704 5708 5712 5715 5719 5723 5726 5730 5734 5738
5699 5697 5694 5692 5690 5688 5687 5686 5685 5684 5684 5683 5682 5681 5680 5680 5679 5679 5679 5679 5679 5680 5681 5682 5683 5685 5687 5690 5693 5697 5701 5705 5708 5712 5716 5720 5723 5726
5693 5690 5687 5685 5683 5681 5680 5678 5678 5677 5676 5676 5675 5674 5673 5672 5671 5671 5670 5670 5670 5671 5671 5672 5673 5675 5677 5680 5683 5687 5691 5694 5698 5701 5705 5708 5712 5716
5686 5683 5681 5679 5677 5675 5673 5671 5670 5670 5669 5668 5667 5666 5666 5665 5664 5663 5662 5662 5662 5662 5663 5664 5665 5666 5668 5671 5674 5677 5681 5684 5687 5691 5695 5698 5702 5705
5680 5678 5675 5673 5671 5669 5667 5665 5664 5663 5662 5661 5660 5660 5659 5657 5656 5655 5655 5654 5654 5654 5655 5656 5657 5658 5659 5662 5664 5668 5671 5674 5678 5681 5685 5688 5692 5695
5675 5672 5670 5668 5665 5663 5661 5659 5658 5657 5655 5654 5653 5652 5651 5650 5649 5648 5647 5647 5647 5647 5647 5648 5649 5650 5651 5654 5656 5658 5662 5665 5669 5672 5675 5678 5681 5685
5670 5668 5665 5663 5660 5658 5656 5654 5652 5650 5649 5648 5647 5645 5644 5643 5642 5641 5640 5640 5640 5640 5640 5641 5641 5642 5644 5646 5648 5650 5653 5656 5659 5662 5665 5668 5671 5674
5666 5663 5660 5658 5655 5653 5651 5649 5647 5645 5643 5642 5640 5639 5637 5636 5635 5634 5633 5633 5633 5632 5632 5633 5634 5635 5636 5638 5640 5642 5644 5647 5649 5652 5655 5658 5661 5664
5662 5659 5656 5653 5650 5648 5646 5644 5642 5639 5638 5636 5634 5633 5631 5630 5628 5627 5627 5626 5626 5625 5624 5625 5626 5626 5628 5630 5631 5633 5635 5637 5640 5642 5645 5648 5650 5653
5658 5655 5652 5649 5646 5643 5641 5638 5636 5634 5632 5630 5628 5626 5625 5624 5622 5621 5620 5619 5619 5619 5618 5618 5618 5619 5620 5622 5623 5625 5626 5628 5631 5633 5635 5637 5640 5643
5654 5651 5648 5645 5641 5638 5636 5633 5631 5628 5626 5624 5622 5620 5619 5617 5616 5615 5614 5613 5612 5612 5611 5611 5611 5611 5613 5614 5615 5616 5618 5620 5621 5623 5625 5627 5630 5633
5651 5648 5644 5641 5637 5634 5631 5628 5625 5623 5620 5618 5616 5614 5612 5611 5609 5608 5607 5606 5605 5605 5604 5604 5604 5604 5605 5606 5608 5608 5609 5611 5612 5614 5616 5618 5620 5622
5648 5644 5641 5637 5633 5630 5627 5623 5620 5618 5615 5613 5610 5608 5606 5604 5603 5601 5600 5599 5598 5597 5597 5597 5597 5597 5597 5598 5599 5600 5601 5602 5603 5605 5606 5608 5610 5612
5645 5641 5637 5633 5630 5626 5622 5619 5615 5612 5609 5607 5604 5602 5600 5598 5596 5595 5593 5592 5591 5591 5590 5589 5589 5589 5589 5589 5590 5591 5592 5593 5594 5595 5597 5599 5601 5603
5641 5637 5633 5630 5626 5621 5617 5613 5610 5607 5604 5601 5598 5595 5593 5591 5589 5588 5587 5585 5584 5583 5582 5582 5581 5581 5581 5581 5582 5582 5583 5584 5585 5586 5587 5589 5591 5593
5638 5633 5629 5625 5620 5616 5612 5608 5605 5601 5598 5595 5591 5589 5586 5584 5582 5581 5579 5578 5576 5575 5575 5574 5573 5573 5573 5573 5573 5573 5574 5575 5576 5577 5578 5580 5582 5583
5634 5629 5625 5620 5616 5611 5607 5603 5599 5595 5592 5588 5585 5582 5579 5577 5575 5573 5571 5570 5569 5568 5567 5566 5565 5565 5565 5565 5564 5564 5565 5566 5567 5568 5569 5571 5572 5574
5630 5625 5621 5616 5611 5606 5602 5598 5593 5589 5585 5582 5579 5575 5572 5570 5568 5566 5564 5562 5561 5560 5559 5558 5557 5556 5556 5556 5556 5555 5555 5556 5558 5559 5560 5561 5563 5564
5626 5621 5616 5611 5606 5602 5597 5592 5588 5583 5579 5576 5572 5569 5566 5563 5561 5559 5557 5555 5553 5552 5551 5550 5549 5548 5547 5547 5547 5547 5546 5547 5548 5550 5551 5552 5554 5556
5622 5617 5612 5607 5602 5597 5592 5587 5582 5578 5574 5570 5566 5563 5560 5557 5554 5552 5550 5548 5546 5545 5544 5542 5541 5540 5540 5539 5539 5539 5539 5539 5540 5541 5542 5544 5545 5547
5618 5612 5607 5602 5597 5592 5587 5582 5577 5573 5569 5565 5561 5557 5554 5551 5548 5546 5543 5541 5539 5537 5536 5534 5533 5533 5532 5531 5531 5531 5531 5531 5532 5533 5534 5535 5537 5539